[[{"header":{"parameterUnit":"m.s-1","parameterCategory":1,"la1":30.2992,"la2":30.254,"lo1":-89.0895,"lo2":-89.0443,"dy":0.0025,"dx":0.0025,"nx":19,"ny":19,"refTime":"2026-04-20T03:00:00:Z","depth":0,"parameterNumber":2,"parameterNumberName":"U-component_of_WINDS"},"data":[0,0,0,-3.9992,-3.9992,-3.9987,-3.9987,-4.0017,-4.0018,0,0,0,0,0,0,0,0,0,0,0,-4.0014,-4.0015,-3.9992,-3.9992,-3.9987,-3.9987,-4.0017,-4.0018,0,0,0,0,0,0,0,0,0,0,0,-4.0014,-4.0015,-4.0016,-3.9992,-3.9987,-3.9987,-4.0017,-4.0008,0,0,0,0,0,0,0,0,0,0,-4.0007,-4.0047,-4.0015,-4.0016,-3.9992,-3.9987,-3.9987,-4.0007,-4.0009,-4.0035,0,-4.0062,0,-4.0041,-4.0022,-4.0022,0,0,0,-3.9977,-4.0046,-4.0026,-4.0016,-3.9993,-3.9987,-3.9985,-4.0007,-4.0009,-4.0037,-4.0062,-4.0062,-4.0041,-4.0022,-4.0023,-4.0222,-4.0224,0,0,-3.9977,-4.0025,-4.0025,-4.0028,-4.0029,-3.9985,-3.9985,-4.0008,-4.0039,-4.0062,-4.0062,-4.0042,-4.0023,-4.0023,-4.0221,-4.0223,0,0,0,-3.9988,-4.0026,-4.0004,-4.0028,-4.0024,-3.9986,-3.9985,-4.0038,-4.0027,-4.0062,-4.0042,-4.0023,-4.0024,-4.0219,-4.0222,-4.0351,0,0,0,-3.9988,-4.0032,-4.0005,-4.0034,-4.0024,-4.0031,-4.0016,-4.0025,-4.0026,-4.0042,-4.0023,-4.0024,-4.0217,-4.022,-4.0343,-4.0405,0,0,0,-4.0008,-4.0034,-4.004,-4.0036,-4.0035,-4.0029,-4.0019,-4.0024,-4.0015,-4.0022,-4.0025,-4.0216,-4.022,-4.0337,-4.0394,-4.0475,0,0,0,-4.0042,-4.0154,-4.0043,-4.016,-4.0036,-4.0108,-4.0018,-4.0069,-4.0091,-4.0023,-4.0217,-4.0221,-4.0334,-4.0387,-4.0468,-4.0553,-4.0592,0,0,-4.021,-4.0176,-4.0241,-4.0141,-4.0245,-4.0105,-4.0228,-4.0203,-4.016,-4.0205,-4.0209,-4.0346,-4.0393,-4.0473,-4.0789,-4.082,0,0,0,-4.031,-4.0358,-4.0375,-4.0397,-4.038,-4.0372,-4.0323,-4.0314,-4.0349,-4.0192,-4.0393,-4.042,-4.0465,-4.0504,-4.0531,-4.0568,-4.024,-4.024,-4.0239,-4.0617,-4.0556,-4.0661,-4.06,-4.0623,-4.0572,-4.0586,-4.0565,-4.0496,-4.0545,-4.056,-4.0758,-4.0806,-4.0825,-4.0865,-4.0596,-4.0597,-4.0597,-4.0598,-4.086,-4.092,-4.0826,-4.0894,-4.083,-4.0887,-4.0843,-4.0792,-4.0838,-4.0742,-4.0778,-4.0683,-4.0862,-4.0894,-4.0607,-4.0605,-4.0604,-4.0603,-4.0602,-4.1058,-4.1077,-4.1063,-4.109,-4.1119,-4.1052,-4.1101,-4.1039,-4.0982,-4.1018,-4.1029,-4.1027,-4.102,-4.1027,-4.1027,-4.1028,-4.1029,-4.1029,-4.103,-4.1271,-4.1251,-4.1299,-4.1291,-4.1298,-4.13,-4.125,-4.1256,-4.1248,-4.12,-4.12,-4.113,-4.0888,-4.0832,-4.104,-4.1038,-4.1037,-4.1036,-4.1035,-4.1547,-4.1475,-4.1549,-4.1557,-4.1544,-4.1578,-4.1498,-4.1516,-4.1512,-4.1539,-4.146,-4.129,-4.1252,-4.123,-4.1183,-4.147,-4.147,-4.147,-4.147,-4.1718,-4.1691,-4.1754,-4.1771,-4.178,-4.1716,-4.1805,-4.1768,-4.1718,-4.1713,-4.1661,-4.1592,-4.1572,-4.1546,-4.1517,-4.1473,-4.1826,-4.1827,-4.1827,-4.1886,-4.1858,-4.1945,-4.1894,-4.1879,-4.1869,-4.1952,-4.1977,-4.1905,-4.184,-4.1708,-4.1693,-4.158,-4.1546,-4.1483,-4.144,-4.1357,0,0]},{"header":{"parameterUnit":"m.s-1","parameterCategory":1,"la1":30.2992,"la2":30.254,"lo1":-89.0895,"lo2":-89.0443,"dy":0.0025,"dx":0.0025,"nx":19,"ny":19,"refTime":"2026-04-20T03:00:00:Z","depth":0,"parameterNumber":3,"parameterNumberName":"V-component_of_WINDS"},"data":[0,0,0,0.324,0.3238,0.3159,0.3159,0.3061,0.306,0,0,0,0,0,0,0,0,0,0,0,0.3266,0.3266,0.324,0.3238,0.3159,0.3159,0.3061,0.306,0,0,0,0,0,0,0,0,0,0,0,0.3267,0.3266,0.3265,0.3238,0.3159,0.3159,0.3061,0.3119,0,0,0,0,0,0,0,0,0,0,0.3195,0.3223,0.3266,0.3265,0.3237,0.3159,0.3159,0.3122,0.3115,0.3098,0,0.3086,0,0.3072,0.3054,0.3053,0,0,0,0.3234,0.3229,0.3205,0.3265,0.3236,0.316,0.3194,0.3118,0.3111,0.309,0.3084,0.308,0.307,0.3053,0.3053,0.297,0.297,0,0,0.3239,0.3253,0.321,0.32,0.3215,0.3196,0.3191,0.3114,0.3108,0.3084,0.3078,0.3068,0.3053,0.3052,0.297,0.297,0,0,0,0.3254,0.3256,0.3234,0.3204,0.319,0.3194,0.3188,0.3111,0.3103,0.3077,0.3067,0.3052,0.3051,0.297,0.297,0.2973,0,0,0,0.3256,0.3265,0.3236,0.3244,0.3192,0.315,0.3188,0.3108,0.3099,0.3068,0.3052,0.305,0.297,0.297,0.2973,0.297,0,0,0,0.327,0.3267,0.3257,0.3245,0.3212,0.3151,0.3138,0.3106,0.3093,0.3053,0.305,0.2971,0.297,0.2973,0.2971,0.2952,0,0,0,0.3289,0.3259,0.3257,0.322,0.3213,0.3155,0.3139,0.3094,0.306,0.3052,0.297,0.297,0.2974,0.2971,0.2953,0.2938,0.2934,0,0,0.3259,0.3256,0.3233,0.3229,0.3175,0.3165,0.3111,0.3065,0.3047,0.2996,0.2994,0.2973,0.2971,0.2952,0.2909,0.2905,0,0,0,0.3228,0.3212,0.3195,0.3165,0.3131,0.3102,0.3064,0.3047,0.3004,0.3025,0.2962,0.296,0.2948,0.294,0.2938,0.2926,0.2967,0.2968,0.2968,0.3205,0.3186,0.3147,0.3119,0.309,0.3053,0.3027,0.2997,0.2985,0.2971,0.2954,0.293,0.2922,0.292,0.2908,0.2947,0.2947,0.2947,0.2947,0.3158,0.3131,0.3119,0.3076,0.3056,0.3019,0.2982,0.2975,0.2936,0.2941,0.2929,0.2934,0.2917,0.2905,0.2947,0.2947,0.2947,0.2947,0.2947,0.3139,0.3123,0.3106,0.3061,0.3029,0.3002,0.2966,0.2949,0.2932,0.2921,0.2902,0.2902,0.2898,0.2914,0.2914,0.2914,0.2914,0.2914,0.2914,0.3125,0.3105,0.3079,0.3043,0.3022,0.2992,0.2956,0.2934,0.2905,0.2895,0.2895,0.2883,0.292,0.2929,0.2912,0.2912,0.2913,0.2913,0.2913,0.3081,0.3089,0.3047,0.3027,0.2983,0.2953,0.2933,0.289,0.287,0.2853,0.2845,0.2876,0.287,0.2872,0.2879,0.285,0.285,0.285,0.285,0.3063,0.306,0.3014,0.2983,0.295,0.2928,0.2881,0.2853,0.2825,0.2811,0.2813,0.2821,0.2824,0.2816,0.282,0.2826,0.2784,0.2784,0.2784,0.3034,0.3027,0.299,0.2966,0.2931,0.2901,0.2856,0.2819,0.2788,0.2781,0.2799,0.2802,0.2815,0.2821,0.281,0.2816,0.2826,0,0]}]]